Погода в Ныде

Погода в Ныде : погода сейчас, прогноз погоды и архив. Всё, что Вы хотите узнать о погоде в Ныде!

Хотите узнать прогноз погоды в Ныде? Тогда Вам сюда: Погода в Ныде

Поиск расширенной информации на нашем сайте:

Другие новости

Новости СМИ2

Главная страница сайта

Новости сайта

03.07.2017

Напоминаем, что на нашем специализированном сайте Метеоцентр.Азия вы можете получить высокодетализированные автоматические прогнозы погоды по пунктам России, СНГ и мира в авиационном формате (включающие направление и скорость ветра, видимость, явления погоды, количество и форму облачности, нижнюю и верхнюю границу облачности).


Погода в Ныде - сегодня

Время (UTC), дата Ветер
(°,м/с) 
Видим.   Явления Облачность Т
(°С)
Тd
(°С)
f(%) Тe
(°С)
Pmin
(гПа)
dP
(гПа)
Po
(мм)
O2
(г/м3)
Тmin Tmax R s Состояние
почвы
03 11.11.18 270 (З) 12-15{15}  2000 м  слаб. снег  10/10 300 м 
[Sc]
-4.1 -4.9 94 -11  1013.2  -3.4  759  311  -17.7    22  неравномерный
сухой снег
100% 
12 11.11.18 270 (З) 15-19{22}  0500 м  слаб. снег  10/10 300 м 
[Ns]
-4.8 -5.7 93 -12  1006.5  -2.2  754  310           
15 11.11.18 280 (З) 10-13{19}  1000 м  слаб. снег  10/10 300 м 
[Ns]
-2 -2.6 96 -7  1004.1  -2.4  752  306    -1.7     
00 12.11.18 280 (З) 9-13{16}  4000 м  слаб. снег [диам. гололёда 3 мм]  10/10 300 м 
[Ns]
-2.8 -3.5 95 -8  1004  -0.5  752  307           
03 12.11.18 080 (В) 1{13}  10 км  {снег} [диам. гололёда 3 мм]  9/8 300 м средняя 
[Sc|Ac trans]
-5.9 -6.8 93 -6  1005.2  1.2  753  311  -5.9    28  неравномерный
сухой снег
100% 
09 12.11.18 110 (В) 10 км  [диам. гололёда 3 мм]  8/5 300 м средняя 
[Sc|Ac trans]
-8.3 -9.7 90 -10  1010  2.6  757  315           
12 12.11.18 120 (ЮВ) 10 км  [диам. гололёда 3 мм]  8/8 300 м 
[Sc]
-9.4 -10.8 90 -9  1012.4  2.4  759  318           
18 12.11.18 150 (ЮВ) 10 км  [диам. гололёда 3 мм]  10/10 300 м 
[Sc]
-8.9 -10.5 88 -9  1016.2  1.6  761  318           
21 12.11.18 190 (Ю) 10 км  [диам. гололёда 3 мм]  10/10 300 м 
[Sc]
-9.3 -11 87 -15  1016.1  -0.2  761  319           
03 13.11.18 200 (Ю) 7{11}  4000 м  слаб. снег [диам. гололёда 3 мм]  10/10 300 м 
[Ns]
-5.4 -6.3 93 -10  1010.1  -3.4  757  312  -9.7    0.4  28  неравномерный
сухой снег
100% 
12 13.11.18 260 (З) 11-14{15}  4000 м  слаб. снег [диам. гололёда 3 мм]  10/10 300 м 
[Sc]
-1.9 -3 92 -8  1007.1  -0.2  755  307           
15 13.11.18 260 (З) 12-15{15}  4000 м  слаб. снег [диам. гололёда 3 мм]  10/10 300 м 
[Sc]
-1.9 -2.6 95 -8  1006.6  -0.5  754  306    -1.8     
00 14.11.18 250 (З) 10-12{16}  2000 м  снег [диам. гололёда 3 мм]  10/10 300 м 
[Ns]
-2.3 -3.1 94 -8  1003.9  -0.9  752  306           
03 14.11.18 260 (З) 10-13{14}  2000 м  снег [диам. гололёда 0 мм]  10/10 300 м 
[Ns]
-3.1 -3.9 94 -9  1002.6  -1.3  751  307  -3.1    34  неравномерный
сухой снег
100% 
15 14.11.18 010 (С) 7-10{12}  4000 м  слаб. снег  10/10 300 м 
[Sc]
-5.4 -6.4 93 -10  1005.3  2.3  753  310    -3.1     
03 15.11.18 280 (З) 10 км    ясно 
-19 -21.4 81 -25  1021.2  3.1  765  333  -19.3    0.2     
12 15.11.18 280 (З) 10 км    3/0 средняя 
[Ac trans]
-17.8 -19.7 85 -24  1030.9  2.9  772  335           
15 15.11.18 280 (З) 7-10{10}  4000 м  мгла  8/8 600 м 
[Sc]
-13 -14.5 88 -20  1032.4  1.5  774  329    -13       
03 16.11.18 230 (ЮЗ) 9-12{13}  4000 м  метель  8/8 300 м 
[Sc]
-11.3 -14.8 75 -18  1029.9  -2.3  772  326  -15.7      34  неравномерный
сухой снег
100% 
15 16.11.18 200 (Ю) 8-10{10}  10 км  позёмок  9/9 300 м 
[Sc]
-9 -11.5 82 -15  1021.2  -2.2  765  320    -8.7  0.3     
03 17.11.18 200 (Ю) 7{10}  10 км  позёмок  10/4 300 м средняя 
[Sc|Ac As]
-7.4 -9.2 87 -13  1015.3  -1.2  761  316  -9      34  неравномерный
сухой снег
100% 
15 17.11.18 260 (З) 7{10}  4000 м  слаб. снег  10/0 средняя 
[As op]
-5.2 -6.3 92 -10  1015.8  1.3  761  313    -5.2  0.3     
03 18.11.18 050 (СВ) 10 км    8/0 средняя, верхняя 
[Ac trans|Ci sp]
-19.8 -23.3 74 -26  1026.9  2.4  769  336  -19.8    0.3  34  неравномерный
сухой снег
100% 
06 18.11.18 060 (СВ) 10 км    9/0 средняя, верхняя 
[Ac trans|Ci sp]
-19.9 -23.6 72 -25  1028.8  1.9  771  337  -20.1         
09 18.11.18 040 (СВ) 10 км    9/0 средняя 
[Ac trans]
-19.2 -23.1 71 -22  1030.4  1.6  772  336           
Время (UTC), дата Ветер
(°,м/с) 
Видим.   Явления Облачность Т
(°С)
Тd
(°С)
f(%) Тe
(°С)
Pmin
(гПа)
dP
(гПа)
Po
(мм)
O2
(г/м3)
Тmin Tmax R s Состояние
почвы

Для получения пояснительной информации подведите курсор к названию столбца.

ПОГОДА в Ныде - архив

Всё, что Вы хотите узнать о погоде в Ныде - удобно и подробно!

Выберите нужную дату (начиная с 1 января 2015* года) и нажмите кнопку "Найти".
Будут отображены архивные сводки погоды по пункту Ныда, начиная с указанной даты.


Отображать данные в формате CSV (для использования в таблицах Excel)


Внимание! Наш архив погоды предназначен исключительно для личного некоммерческого использования в познавательных целях. Если Вам необходимы официальные справки о состоянии погоды (для производственных, юридических, коммерческих и т.п. целей), обращайтесь в органы Росгидромета.

*Примечание: данная дата относится к архиву по метеостанциям СССР (Россия, СНГ, Балтия).
Архив по метеостанциям Зарубежной Европы и Азии (кроме Китая) хранится 10 дней, по другим регионам земного шара (Китай, Африка, Америка, Австралия, Океания) - 1 день.

Ныда - район местоположения метеостанции


Название, широта, долгота, высота метеостанции:
Ныда 66.7°ш. 72.9°д. 10 м над ур. моря [Российская Федерация]

Дополнительная информация

В oтличие oт бoльшинства пoгoдных сайтoв мы публикуем пoдрoбную метеoинфoрмацию в детальнoм прoфессиoнальнoм фoрмате.

Характеристики температуры и влажнoсти вoздуха измеряются на высoте 2 м в тени вдали oт зданий и деревьев.
Скoрoсть ветра измеряется на высoте 10 м (на урoвне рoста челoвека скoрoсть ветра ниже в 1.5-2 раза). Если метеoстанция нахoдится в гoрoде или в лесу, тo скoрoсть ветра занижена на 2-4 м/с пo сравнению с oткрытым местoм. Скoрoсть ветра над акватoриями крупных рек и oзёр, а также на вершинах хoлмoв на 2-5 м/с выше, чем в oбычных услoвиях.
Атмoсфернoе давление в разных тoчках местнoсти мoжет значительнo oтличаться oт давления на метеoстанции, в зависимoсти oт услoвий рельефа (при пoдъёме на 10 м давление пoнижается примернo на 1 мм рт.ст.).